Temp
29 31 30 30 30 30 29 27 24 23 23 22 21 19 18 17 17 15 14 12 11 10 10 9 9 10 10 9 9 8 8 8 8 9 9 9 9 9 9 8 7 7 7 8
30 28 28 29 29 29 28 26 24 22 22 22 20 18 16 17 17 15 13 13 12 13 12 11 10 10 10 9 9 9 8 8 8 8 7 7 7 8 8 8 7 7 7 7
30 28 27 28 28 28 28 27 25 25 22 22 20 19 16 15 15 14 14 14 14 14 13 12 11 11 10 10 9 9 8 8 7 7 8 7 8 8 9 8 8 7 7 6
29 28 28 28 28 28 28 27 26 23 23 25 22 24 21 17 15 14 15 15 15 14 12 11 12 11 10 10 10 9 8 8 8 7 7 6 7 8 7 7 7 6 6 6
28 28 28 27 26 27 26 26 26 24 25 23 23 22 23 22 17 15 15 14 13 13 13 12 11 11 10 10 10 9 8 8 7 7 6 7 7 7 7 7 6 6 6 6
28 27 27 27 26 26 25 25 25 25 25 24 24 23 22 20 19 18 14 13 13 13 12 11 11 11 11 11 10 9 8 8 7 7 7 6 6 5 6 6 6 7 7 6
27 27 27 26 27 26 26 26 25 25 25 25 23 23 18 16 17 17 15 13 12 11 10 10 12 12 11 10 9 8 8 8 7 7 6 6 6 5 5 5 5 5 6 6
27 25 26 26 25 25 25 24 25 21 23 24 23 22 14 15 15 15 14 12 11 11 10 10 12 10 10 9 8 8 8 7 7 6 6 6 5 5 5 5 5 5 4 4
26 25 25 25 25 25 25 24 24 23 24 23 24 17 15 14 13 13 12 12 11 11 10 10 10 9 8 8 7 7 7 7 6 5 4 4 5 4 4 4 4 4 4 4
25 24 24 24 24 25 24 24 23 24 21 21 23 20 16 15 14 13 13 10 11 11 10 10 9 8 7 7 8 7 6 6 5 4 4 4 3 3 3 3 3 3 4 4
25 25 23 24 22 22 23 23 22 21 21 21 21 17 16 16 16 15 14 13 12 11 10 9 8 8 8 8 8 6 5 5 5 4 3 3 3 2 2 2 2 2 3 3
22 23 23 22 22 22 22 21 21 21 19 20 20 15 17 17 15 15 14 12 11 11 9 8 9 9 8 8 6 5 4 4 4 3 3 3 2 2 2 1 2 2 2 2
22 22 22 21 21 22 20 21 20 20 20 19 20 17 17 16 15 14 14 11 11 10 9 9 9 8 6 5 4 4 4 4 3 3 3 2 2 2 1 1 1 1 1 2
21 21 21 21 20 20 19 20 20 20 20 19 18 18 17 16 16 14 12 12 10 9 9 8 8 7 5 4 4 3 3 3 3 3 3 2 2 1 1 1 1 1 1 1
22 20 20 20 20 20 19 19 19 19 19 18 18 18 17 16 15 13 12 10 10 9 9 8 7 5 4 3 3 3 2 2 3 3 3 2 2 2 2 1 1 1 1 1
20 19 20 19 19 19 19 19 19 19 18 19 18 15 16 14 13 12 11 10 9 9 8 7 6 4 3 3 2 3 3 3 3 3 2 2 2 2 2 2 2 2 2 2
20 20 20 19 19 19 19 18 19 19 19 17 17 16 15 14 13 11 10 9 9 8 7 6 4 3 3 3 2 3 3 3 3 3 3 3 2 2 2 2 2 2 2 2
20 20 20 19 19 18 18 19 18 18 18 17 17 16 15 14 11 10 10 9 8 7 6 5 3 3 3 2 3 2 3 2 2 3 2 3 3 3 3 3 3 3 3 3
20 20 19 18 18 18 18 18 18 17 17 16 16 15 13 12 11 10 8 7 7 6 5 3 3 3 3 3 2 2 2 2 3 2 3 3 3 3 3 3 3 3 3 3
20 20 20 19 18 17 18 18 17 17 15 15 14 14 13 12 15 11 8 7 6 5 4 3 3 3 3 3 2 3 3 3 4 3 4 3 3 4 4 3 3 3 3 3
20 20 19 18 18 18 18 17 17 16 15 14 13 13 12 13 11 8 7 7 5 4 4 3 3 3 3 3 3 3 3 3 4 4 4 4 4 5 4 4 4 4 4 4
20 19 19 19 18 17 16 17 16 15 13 13 12 12 11 9 9 8 7 5 4 4 4 3 3 4 3 3 3 3 3 4 4 3 3 4 5 5 4 5 5 5 5 5
19 18 18 18 18 15 14 14 13 13 13 12 11 10 9 9 8 8 6 4 4 4 4 4 4 4 3 4 3 3 4 4 4 3 3 4 4 4 5 5 5 6 6 6
18 17 19 17 16 16 14 13 12 12 11 11 10 9 9 8 8 6 5 4 4 4 4 4 4 4 3 3 4 4 4 4 4 4 5 5 5 5 5 5 6 6 7 6
18 17 18 18 17 15 14 13 12 11 10 10 9 9 8 8 7 6 5 4 4 4 4 3 4 4 3 3 4 4 4 5 5 5 5 5 6 6 6 6 6 6 6 7
16 16 18 17 16 16 14 12 11 11 10 10 9 8 8 8 7 5 5 4 4 4 4 4 4 4 4 4 4 4 5 5 5 6 6 6 6 7 7 6 7 7 6 6
Height
1524 1515 1519 1521 1521 1522 1527 1535 1548 1553 1555 1555 1558 1566 1570 1572 1573 1577 1579 1581 1583 1583 1584 1583 1582 1583 1582 1581 1579 1576 1576 1575 1575 1574 1571 1569 1567 1564 1563 1560 1557 1555 1553 1552
1521 1530 1531 1529 1528 1529 1530 1538 1548 1554 1554 1554 1560 1567 1574 1572 1573 1578 1581 1582 1584 1585 1586 1587 1587 1587 1585 1582 1580 1579 1578 1576 1574 1573 1570 1567 1565 1563 1560 1559 1557 1554 1551 1549
1520 1534 1535 1532 1531 1531 1533 1534 1545 1544 1555 1555 1562 1563 1573 1576 1577 1579 1581 1582 1582 1584 1585 1586 1587 1587 1586 1583 1581 1579 1578 1576 1573 1570 1570 1567 1565 1562 1560 1557 1555 1551 1549 1547
1530 1534 1533 1532 1535 1534 1532 1537 1540 1548 1547 1538 1548 1547 1548 1565 1575 1579 1579 1580 1581 1584 1586 1586 1586 1585 1585 1583 1582 1580 1577 1575 1573 1570 1569 1566 1564 1561 1558 1555 1552 1549 1546 1544
1536 1534 1533 1536 1542 1535 1542 1539 1539 1542 1540 1546 1546 1551 1540 1548 1567 1575 1578 1581 1583 1585 1587 1587 1586 1586 1584 1583 1582 1580 1577 1575 1572 1570 1568 1565 1562 1559 1556 1553 1550 1547 1544 1540
1534 1538 1538 1539 1541 1540 1542 1542 1541 1538 1535 1541 1537 1544 1547 1554 1558 1564 1577 1581 1583 1586 1588 1587 1585 1586 1585 1584 1582 1580 1577 1575 1573 1570 1567 1564 1561 1556 1553 1550 1547 1544 1541 1538
1536 1539 1541 1542 1536 1540 1540 1536 1541 1540 1535 1533 1537 1544 1567 1569 1570 1570 1575 1581 1585 1588 1588 1587 1586 1585 1585 1583 1580 1578 1577 1574 1571 1568 1565 1562 1558 1554 1551 1547 1544 1541 1538 1536
1540 1549 1542 1545 1546 1546 1541 1545 1545 1565 1549 1539 1532 1546 1579 1578 1578 1577 1580 1584 1585 1586 1588 1587 1586 1586 1585 1583 1580 1577 1575 1572 1569 1565 1562 1559 1555 1551 1548 1545 1542 1540 1536 1533
1542 1550 1548 1550 1548 1546 1542 1544 1546 1550 1533 1540 1530 1567 1577 1581 1582 1582 1584 1585 1586 1586 1588 1587 1586 1586 1583 1582 1579 1576 1573 1570 1567 1564 1559 1555 1552 1549 1546 1542 1539 1538 1534 1531
1543 1551 1550 1551 1549 1547 1550 1550 1551 1539 1559 1558 1533 1551 1578 1579 1582 1584 1584 1586 1586 1587 1588 1587 1587 1585 1582 1580 1578 1575 1572 1568 1566 1561 1557 1554 1550 1546 1543 1540 1536 1533 1531 1529
1543 1545 1553 1551 1557 1559 1552 1551 1552 1554 1553 1555 1551 1576 1578 1578 1578 1581 1582 1584 1585 1587 1587 1588 1586 1584 1582 1580 1577 1573 1571 1566 1564 1560 1556 1552 1548 1543 1539 1536 1533 1530 1528 1527
1553 1551 1554 1558 1563 1563 1561 1562 1558 1556 1563 1560 1557 1584 1578 1579 1582 1582 1584 1586 1588 1588 1589 1588 1586 1584 1581 1579 1576 1573 1569 1566 1563 1559 1555 1551 1548 1544 1539 1534 1531 1529 1527 1526
1556 1559 1560 1565 1567 1561 1565 1564 1562 1563 1559 1567 1562 1577 1579 1582 1582 1585 1585 1589 1590 1590 1590 1588 1586 1584 1581 1578 1576 1573 1569 1565 1562 1558 1555 1552 1548 1543 1539 1535 1531 1528 1527 1527
1559 1562 1564 1563 1569 1568 1570 1569 1564 1562 1563 1565 1573 1571 1573 1581 1582 1586 1589 1589 1591 1592 1590 1589 1587 1584 1582 1579 1576 1572 1569 1566 1562 1560 1558 1554 1548 1543 1539 1537 1532 1529 1528 1528
1561 1567 1566 1568 1569 1569 1572 1572 1571 1571 1571 1574 1573 1572 1577 1583 1584 1587 1589 1592 1592 1592 1591 1589 1587 1585 1583 1580 1577 1574 1570 1567 1565 1563 1560 1554 1550 1545 1541 1538 1535 1532 1530 1529
1565 1570 1567 1573 1572 1572 1574 1574 1572 1573 1575 1570 1572 1580 1583 1587 1588 1589 1592 1592 1593 1592 1592 1590 1588 1586 1583 1580 1577 1575 1573 1570 1568 1565 1561 1556 1552 1548 1544 1541 1538 1536 1533 1532
1564 1568 1568 1571 1573 1573 1574 1576 1574 1573 1573 1579 1578 1580 1584 1586 1589 1591 1593 1594 1593 1593 1592 1591 1588 1587 1584 1581 1578 1577 1574 1572 1569 1567 1563 1559 1555 1551 1547 1544 1541 1538 1536 1535
1567 1568 1566 1571 1573 1581 1577 1578 1578 1578 1575 1580 1580 1583 1585 1587 1591 1592 1593 1594 1594 1594 1593 1591 1589 1587 1585 1582 1580 1578 1576 1574 1570 1568 1565 1562 1558 1555 1551 1548 1545 1542 1540 1537
1567 1565 1573 1576 1577 1577 1577 1579 1580 1580 1579 1585 1583 1587 1589 1590 1590 1593 1594 1595 1595 1595 1594 1592 1590 1588 1586 1584 1581 1579 1578 1575 1572 1570 1567 1564 1561 1559 1556 1552 1549 1546 1544 1542
1569 1567 1569 1572 1579 1582 1579 1582 1583 1580 1584 1587 1588 1586 1588 1590 1579 1589 1595 1596 1596 1595 1594 1592 1590 1589 1587 1585 1583 1582 1580 1577 1574 1571 1568 1566 1564 1562 1559 1556 1554 1550 1548 1546
1565 1567 1573 1577 1577 1576 1581 1584 1582 1580 1589 1589 1589 1589 1589 1587 1592 1595 1596 1597 1596 1595 1595 1593 1592 1590 1588 1587 1585 1583 1581 1578 1575 1573 1570 1569 1567 1566 1563 1562 1559 1557 1554 1552
1568 1571 1573 1573 1576 1583 1586 1583 1583 1589 1590 1591 1591 1591 1591 1593 1595 1596 1597 1597 1597 1596 1595 1594 1593 1591 1589 1588 1587 1584 1581 1579 1576 1575 1573 1571 1570 1569 1569 1566 1563 1561 1559 1557
1572 1578 1577 1580 1581 1588 1588 1588 1590 1591 1591 1592 1592 1593 1593 1594 1596 1596 1598 1597 1597 1596 1596 1594 1594 1593 1591 1589 1587 1585 1582 1580 1580 1578 1577 1576 1575 1575 1573 1571 1568 1567 1564 1562
1578 1581 1577 1581 1586 1587 1589 1591 1592 1592 1593 1594 1594 1594 1594 1595 1596 1597 1598 1597 1597 1596 1596 1595 1595 1594 1593 1590 1588 1586 1585 1584 1584 1583 1582 1581 1580 1579 1577 1576 1573 1572 1569 1567
1582 1581 1581 1579 1584 1587 1589 1591 1593 1594 1595 1595 1595 1595 1596 1597 1597 1598 1598 1597 1597 1597 1596 1596 1596 1595 1594 1592 1591 1590 1589 1589 1588 1587 1586 1585 1584 1583 1581 1579 1578 1577 1574 1571
1588 1588 1580 1583 1589 1588 1590 1592 1594 1595 1596 1596 1597 1597 1598 1598 1598 1599 1598 1598 1597 1598 1597 1596 1597 1596 1595 1593 1594 1594 1593 1592 1591 1591 1590 1589 1588 1587 1585 1584 1581 1579 1577 1575
Wind_Speed
6 8 9 11 10 10 8 10 12 9 6 5 8 9 7 7 7 9 8 7 8 10 10 10 13 10 11 12 14 17 17 19 17 15 15 15 15 14 13 12 12 9 10 11
6 10 7 8 7 8 8 9 8 6 4 4 7 6 7 5 9 8 7 8 7 7 9 8 9 9 10 11 13 15 16 17 17 18 16 16 15 12 10 11 12 12 13 11
9 11 6 6 6 3 3 7 6 2 8 4 9 11 10 9 8 7 6 6 6 7 7 7 7 8 10 12 13 15 16 16 17 22 16 15 13 13 12 14 14 14 14 12
9 6 5 3 3 7 2 3 5 10 10 5 13 5 15 15 10 9 7 6 5 5 4 6 6 7 9 11 13 14 14 17 17 17 17 16 16 17 16 15 15 17 15 15
8 5 2 7 7 4 6 1 5 10 11 6 14 6 10 11 10 10 8 5 5 4 3 6 8 9 8 9 13 13 13 15 15 17 18 17 17 17 16 17 17 15 15 12
9 5 7 4 5 8 7 2 5 9 8 12 8 4 9 3 5 2 12 8 7 5 4 6 8 9 9 11 12 13 14 15 17 19 17 17 18 17 16 16 17 16 15 14
8 5 6 8 5 8 6 8 11 9 7 6 6 6 11 15 11 10 11 11 8 6 7 7 8 11 10 9 11 14 15 18 20 19 16 17 18 17 16 17 16 17 15 14
5 8 5 8 8 7 4 8 8 13 11 12 5 4 5 8 8 7 10 10 8 3 5 8 9 10 11 13 14 15 17 20 20 17 18 17 17 16 15 15 16 16 15 13
2 4 5 7 9 9 9 6 7 10 12 9 3 11 8 5 4 4 5 5 2 3 5 8 10 8 10 13 15 17 18 18 19 18 17 16 18 15 15 17 18 15 15 14
3 2 1 3 6 8 9 5 7 5 7 9 2 6 6 10 3 3 5 3 3 3 5 6 6 11 12 13 17 16 16 16 17 17 15 16 18 20 22 21 20 17 16 14
5 4 6 5 8 10 8 7 5 4 4 6 7 5 4 7 5 2 3 1 3 2 4 5 8 12 14 17 17 14 16 17 16 17 17 20 21 21 18 15 15 15 12 9
5 4 3 6 5 5 8 7 6 5 3 4 5 4 5 6 6 5 5 6 5 5 5 8 11 15 18 18 14 15 15 16 16 15 20 18 16 17 17 15 13 12 5 4
3 3 6 10 7 6 6 8 5 2 4 6 8 5 6 4 6 7 6 6 6 6 9 12 15 17 16 14 16 16 16 14 14 17 16 13 18 21 14 16 14 10 8 3
3 2 4 6 7 2 3 6 8 6 5 5 6 7 4 5 6 4 5 5 7 7 10 14 16 15 16 16 14 15 12 13 16 15 12 15 19 16 15 14 16 9 8 5
3 4 4 7 5 4 4 5 8 8 7 6 9 7 8 5 5 5 4 5 5 8 12 14 14 14 13 14 13 13 13 15 12 11 14 18 20 18 14 13 16 14 7 7
2 3 2 4 3 2 3 4 3 5 7 6 6 5 4 3 3 4 2 4 6 10 12 13 13 12 13 13 12 12 13 11 11 12 15 18 16 18 16 13 15 16 14 11
1 3 3 4 2 4 5 7 6 6 5 7 9 8 1 1 1 2 3 4 8 10 11 11 12 11 11 12 11 11 11 11 11 14 14 15 19 21 18 16 15 14 14 11
5 1 2 3 3 1 6 3 6 8 5 6 2 4 4 4 3 3 4 6 8 9 9 10 10 9 9 10 10 9 10 11 13 12 14 16 17 19 18 17 17 18 18 17
3 2 2 3 1 3 4 1 6 10 4 6 7 2 2 2 4 5 5 6 6 7 6 8 8 8 7 8 7 8 10 11 13 13 13 14 13 13 15 15 15 14 15 15
5 2 3 1 2 2 6 2 7 7 4 6 6 4 2 3 8 11 4 4 5 6 5 7 8 8 7 7 9 9 10 11 13 13 12 12 14 17 18 18 22 21 17 17
2 2 5 2 1 4 5 5 6 5 5 4 6 5 1 4 6 5 3 4 4 4 5 6 7 6 7 8 10 10 10 12 11 9 9 11 12 16 17 17 20 26 27 28
4 4 4 1 2 3 6 5 7 5 3 2 4 3 3 5 4 3 3 4 3 3 5 5 5 5 5 8 9 10 11 10 10 9 9 12 16 15 12 15 18 16 14 13
2 5 4 6 5 3 4 5 6 3 3 3 3 4 5 5 4 2 4 3 2 2 3 4 4 2 5 7 10 10 9 10 10 12 15 16 14 12 12 15 17 17 16 16
4 2 2 4 4 3 3 6 5 5 5 5 6 5 4 6 4 4 2 1 0 1 3 3 5 5 5 7 10 10 10 11 14 14 13 14 13 12 12 12 17 20 17 16
6 2 2 3 6 0 4 3 5 7 6 6 5 5 6 6 4 3 2 2 2 4 3 4 4 5 6 7 7 10 11 13 11 12 14 14 11 12 14 18 18 15 20 18
12 8 5 7 7 7 4 7 7 6 5 4 5 7 6 5 4 3 4 2 4 4 5 3 4 5 6 10 10 10 11 12 13 11 12 11 12 13 13 11 11 16 19 18
Wind_Direction
200 227 62 48 42 64 87 104 112 112 106 96 129 145 152 155 147 118 110 104 116 97 83 73 59 65 63 56 49 38 30 20 18 3 356 346 337 336 331 330 337 334 328 321
177 78 82 100 100 105 105 119 113 115 179 222 157 141 145 178 129 136 133 123 109 107 97 78 67 59 58 51 45 35 23 13 9 360 355 352 344 339 335 330 328 322 323 321
92 116 129 125 120 134 54 18 168 55 160 162 176 182 179 161 151 147 135 156 127 117 106 84 62 47 36 32 25 17 10 4 359 356 350 352 350 343 334 331 329 321 320 316
93 127 158 189 68 318 63 4 189 166 199 324 203 332 187 165 177 193 190 169 148 125 85 90 69 35 23 19 10 5 1 355 351 353 350 347 344 337 331 331 323 330 320 311
101 133 101 65 24 329 51 199 216 201 243 263 184 256 99 162 187 189 202 161 138 96 69 58 36 13 8 5 0 357 356 351 351 348 343 342 334 330 325 324 325 324 324 326
107 99 43 50 56 30 130 175 233 219 252 251 94 281 74 73 292 140 154 130 114 91 61 39 23 359 356 352 349 348 347 345 341 339 335 334 333 327 326 325 332 325 325 317
134 85 96 13 271 152 241 300 311 289 283 333 80 276 41 45 38 29 132 120 97 82 18 323 334 347 340 345 348 348 338 335 333 332 329 328 324 326 325 328 328 326 321 308
238 162 21 15 23 330 338 329 322 311 320 324 151 356 66 34 41 60 86 110 111 3 283 296 316 336 340 341 342 343 335 331 333 329 322 324 324 327 326 328 330 328 327 322
228 133 109 47 33 348 353 331 337 285 267 261 63 106 105 107 68 69 110 116 131 261 278 307 324 337 347 333 341 337 335 336 335 333 332 331 334 334 330 326 324 323 329 331
72 203 330 51 288 85 12 1 309 288 296 314 93 64 36 11 81 148 148 155 248 279 314 330 346 342 350 344 336 337 343 339 337 340 344 344 341 333 321 314 314 313 315 329
337 302 109 227 24 7 347 359 330 284 317 316 329 71 36 6 20 104 104 145 35 2 6 10 346 358 341 335 334 344 341 340 338 343 346 342 339 339 339 331 326 325 311 327
29 352 336 48 82 31 50 13 348 320 27 348 280 72 32 23 41 46 53 74 58 48 30 5 349 340 336 335 344 338 339 341 344 350 346 351 355 360 355 350 342 340 340 350
6 61 298 157 181 126 37 19 2 314 267 26 326 77 48 42 41 35 57 74 58 40 13 355 347 344 348 358 349 346 341 346 355 354 359 355 359 1 6 3 1 5 334 332
58 51 353 19 45 344 64 32 24 355 349 347 48 339 88 39 14 48 68 59 48 25 1 354 348 355 1 353 355 356 357 357 1 8 3 360 352 3 15 15 19 25 18 53
30 84 81 77 77 68 76 35 30 42 20 9 5 337 45 23 35 64 74 64 23 5 358 354 354 4 13 359 2 6 9 8 10 18 9 359 15 20 25 24 25 38 53 31
26 111 138 100 102 94 79 59 15 29 9 350 330 81 61 99 89 69 71 26 13 0 356 357 2 15 6 1 5 14 12 19 17 14 6 10 28 32 34 23 23 36 39 46
64 135 252 82 159 268 195 26 1 343 6 348 346 14 99 189 27 89 45 14 3 0 0 2 20 10 6 4 6 13 20 23 20 14 13 22 30 40 42 41 42 47 53 50
131 132 327 70 240 235 69 31 354 329 31 5 329 5 355 6 110 105 33 8 1 1 5 8 13 10 11 11 16 33 29 25 20 29 32 38 35 40 41 41 40 54 56 63
57 312 94 326 330 85 148 90 351 340 14 33 0 357 19 136 194 123 70 35 17 17 18 18 12 4 6 18 43 39 31 35 32 28 24 30 30 22 35 36 46 59 57 54
104 98 30 340 308 20 59 36 337 302 166 34 349 346 301 249 281 102 57 25 32 32 31 19 23 23 47 56 51 32 21 19 24 21 36 27 33 51 64 58 57 59 59 58
143 16 7 63 13 115 50 345 309 285 31 16 356 359 6 319 30 91 84 65 57 52 27 30 39 68 68 58 34 16 10 17 18 20 35 43 57 79 73 56 65 69 66 74
2 333 38 268 301 97 8 275 342 61 65 32 19 33 83 104 118 114 86 90 61 40 27 46 61 82 45 38 16 8 7 18 32 46 54 66 85 91 67 61 53 54 60 50
130 28 10 5 34 54 31 72 97 80 96 53 78 87 113 118 124 95 123 109 74 25 47 54 59 49 18 15 5 21 28 57 64 76 78 81 86 79 66 52 48 48 44 46
102 53 26 253 78 54 106 122 111 92 93 89 106 109 114 118 119 121 123 126 136 72 64 65 54 68 36 16 36 46 62 74 93 85 81 83 76 73 57 45 57 47 63 48
24 251 14 146 84 284 133 146 136 118 106 102 99 109 120 115 103 112 100 101 127 98 67 79 73 72 34 47 54 81 80 92 90 82 75 74 75 71 63 60 57 53 47 48
357 8 350 40 15 349 42 158 148 133 119 104 113 124 116 112 111 102 73 97 114 113 104 93 87 76 55 93 90 95 86 87 90 92 73 78 77 53 52 52 41 35 32 32